{"data":{"norad_id":65330,"intl_designator":"2025-189H","name":"STARLINK-34864","alt_names":[],"object_type":"PAYLOAD","status":"ACTIVE","operator":null,"country":"US","launch_date":"2025-08-27","launch_site_code":"AFETR","launch_vehicle":null,"mission":null,"orbit_class":"UNKNOWN","rcs_meters":null,"size_class":null,"mass_kg":null,"dimensions":null,"purposes":["comms"],"wikipedia_slug":null,"has_3d_model":false,"image_url":null,"decayed_at":null,"tle_current":{"epoch":"2026-05-25T05:03:58.260672Z","epoch_age_seconds":67280,"freshness":"FRESH","line1":"1 65330U 25189H   26145.21109098  .00018542  00000+0  63643-3 0  9994","line2":"2 65330  53.1577 211.2327 0001404  97.0317 263.0843 15.30208127 42822","mean_motion":15.30208127,"eccentricity":0.0001404,"inclination_deg":53.1577,"raan_deg":211.2327,"arg_perigee_deg":97.0317,"mean_anomaly_deg":263.0843,"bstar":0.00063643,"rev_number":4282,"period_min":94.104845908977,"perigee_km":474.22859654597,"apogee_km":476.15301099327,"semimajor_km":6853.3278037696,"source":"CELESTRAK","updated_at":"2026-05-25T13:38:20.759408Z"}}}